Location: Gajan
(43.0218°N, 1.1244°E)
Time: 16:36:12
(UTC+00:00)

Cosmos 2344 - Pass Details

Date: 22 April 2021
Orbit: 1240 x 3002 km, 63.3° (Epoch: 12 May)

Event Time Altitude Azimuth Distance (km) Brightness Sun altitude
Rises 19:53:43 0° 224° (SW) 4,320 6.6 -12.1°
Reaches altitude 10° 19:56:36 10° 227° (SW) 3,267 6.0 -12.5°
Maximum altitude 20:04:02 68° 310° (NW) 1,336 3.9 -13.7°
Drops below altitude 10° 20:11:53 10° 34° (NE) 3,426 5.8 -14.9°
Sets 20:14:58 0° 37° (NE) 4,546 6.5 -15.3°
